QPF
0.00 0.00 0.00 0.00 0.00 0.00 0.00 0.00 0.00 0.00 0.00 0.00 0.00 0.00 0.00 0.00 0.00 0.00 0.00 0.00 0.00 0.00 0.00 0.00 0.00 0.00 0.00 0.00 0.00 0.00 0.00 0.00 0.00 0.00 0.00 0.00 0.00 0.00 0.00 0.00 0.00 0.00 0.00 0.00
0.00 0.00 0.00 0.00 0.00 0.00 0.00 0.00 0.00 0.00 0.00 0.00 0.00 0.00 0.00 0.00 0.00 0.00 0.00 0.00 0.00 0.00 0.00 0.00 0.00 0.00 0.00 0.00 0.00 0.00 0.00 0.00 0.00 0.00 0.00 0.00 0.00 0.00 0.00 0.00 0.00 0.00 0.00 0.00
0.00 0.00 0.00 0.00 0.00 0.00 0.00 0.00 0.00 0.00 0.00 0.00 0.00 0.00 0.00 0.00 0.00 0.00 0.00 0.00 0.00 0.00 0.00 0.00 0.00 0.00 0.00 0.00 0.00 0.00 0.00 0.00 0.00 0.00 0.00 0.00 0.00 0.00 0.00 0.00 0.00 0.00 0.00 0.00
0.00 0.00 0.00 0.00 0.00 0.00 0.00 0.00 0.00 0.00 0.00 0.00 0.00 0.00 0.00 0.00 0.00 0.00 0.00 0.00 0.00 0.00 0.00 0.00 0.00 0.00 0.00 0.00 0.00 0.00 0.00 0.00 0.00 0.00 0.00 0.00 0.00 0.00 0.00 0.00 0.00 0.00 0.00 0.00
0.00 0.00 0.00 0.00 0.00 0.00 0.00 0.00 0.00 0.00 0.00 0.00 0.00 0.00 0.00 0.00 0.00 0.00 0.00 0.00 0.00 0.00 0.00 0.00 0.00 0.00 0.00 0.00 0.00 0.00 0.00 0.00 0.00 0.00 0.00 0.00 0.00 0.00 0.00 0.00 0.00 0.00 0.00 0.00
0.00 0.00 0.00 0.00 0.00 0.00 0.00 0.00 0.00 0.00 0.00 0.00 0.00 0.00 0.00 0.00 0.00 0.00 0.00 0.00 0.00 0.00 0.00 0.00 0.00 0.00 0.00 0.00 0.00 0.00 0.00 0.00 0.00 0.00 0.00 0.00 0.00 0.00 0.00 0.00 0.00 0.00 0.00 0.00
0.00 0.00 0.00 0.00 0.00 0.00 0.00 0.00 0.00 0.00 0.00 0.00 0.00 0.00 0.00 0.00 0.00 0.00 0.00 0.00 0.00 0.00 0.00 0.00 0.00 0.00 0.00 0.00 0.00 0.00 0.00 0.00 0.00 0.00 0.00 0.00 0.00 0.00 0.00 0.00 0.00 0.00 0.00 0.00
0.00 0.00 0.00 0.00 0.00 0.00 0.00 0.00 0.00 0.00 0.00 0.00 0.00 0.00 0.00 0.00 0.00 0.00 0.00 0.00 0.00 0.00 0.00 0.00 0.00 0.00 0.00 0.00 0.00 0.00 0.00 0.00 0.00 0.00 0.00 0.00 0.00 0.00 0.00 0.00 0.00 0.00 0.00 0.00
0.00 0.00 0.00 0.00 0.00 0.00 0.00 0.00 0.00 0.00 0.00 0.00 0.00 0.00 0.00 0.00 0.00 0.00 0.00 0.00 0.00 0.00 0.00 0.00 0.00 0.00 0.00 0.00 0.00 0.00 0.00 0.00 0.00 0.00 0.00 0.00 0.00 0.00 0.00 0.00 0.00 0.00 0.00 0.00
0.00 0.00 0.00 0.00 0.00 0.00 0.00 0.00 0.00 0.00 0.00 0.00 0.00 0.00 0.00 0.00 0.00 0.00 0.00 0.00 0.00 0.00 0.00 0.00 0.00 0.00 0.00 0.00 0.00 0.00 0.00 0.00 0.00 0.00 0.00 0.00 0.00 0.00 0.00 0.00 0.00 0.00 0.00 0.00
0.00 0.00 0.00 0.00 0.00 0.00 0.00 0.00 0.00 0.00 0.00 0.00 0.00 0.00 0.00 0.00 0.00 0.00 0.00 0.00 0.00 0.00 0.00 0.00 0.00 0.00 0.00 0.00 0.00 0.00 0.00 0.00 0.00 0.00 0.00 0.00 0.00 0.00 0.00 0.00 0.00 0.00 0.00 0.00
0.00 0.00 0.00 0.00 0.00 0.00 0.00 0.00 0.00 0.00 0.00 0.00 0.00 0.00 0.00 0.00 0.00 0.00 0.00 0.00 0.00 0.00 0.00 0.00 0.00 0.00 0.00 0.00 0.00 0.00 0.00 0.00 0.00 0.00 0.00 0.00 0.00 0.00 0.00 0.00 0.00 0.00 0.00 0.00
0.00 0.00 0.00 0.00 0.00 0.00 0.00 0.00 0.00 0.00 0.00 0.00 0.00 0.00 0.00 0.00 0.00 0.00 0.00 0.00 0.00 0.00 0.00 0.00 0.00 0.00 0.00 0.00 0.00 0.00 0.00 0.00 0.00 0.00 0.00 0.00 0.00 0.00 0.00 0.00 0.00 0.00 0.00 0.00
0.00 0.00 0.00 0.00 0.00 0.00 0.00 0.00 0.00 0.00 0.00 0.00 0.00 0.00 0.00 0.00 0.00 0.00 0.00 0.00 0.00 0.00 0.00 0.00 0.00 0.00 0.00 0.00 0.00 0.00 0.00 0.00 0.00 0.00 0.00 0.00 0.00 0.00 0.00 0.00 0.00 0.00 0.00 0.00
0.00 0.00 0.00 0.00 0.00 0.00 0.00 0.00 0.00 0.00 0.00 0.00 0.00 0.00 0.00 0.00 0.00 0.00 0.00 0.00 0.00 0.00 0.00 0.00 0.00 0.00 0.00 0.00 0.00 0.00 0.00 0.00 0.00 0.00 0.00 0.00 0.00 0.00 0.00 0.00 0.00 0.00 0.00 0.00
0.00 0.00 0.00 0.00 0.00 0.00 0.00 0.00 0.00 0.00 0.00 0.00 0.00 0.00 0.00 0.00 0.00 0.00 0.00 0.00 0.00 0.00 0.00 0.00 0.00 0.00 0.00 0.00 0.00 0.00 0.00 0.00 0.00 0.00 0.00 0.00 0.00 0.00 0.00 0.00 0.00 0.00 0.00 0.00
0.00 0.00 0.00 0.00 0.00 0.00 0.00 0.00 0.00 0.00 0.00 0.00 0.00 0.00 0.00 0.00 0.00 0.00 0.00 0.00 0.00 0.00 0.00 0.00 0.00 0.00 0.00 0.00 0.00 0.00 0.00 0.00 0.00 0.00 0.00 0.00 0.00 0.00 0.00 0.00 0.00 0.00 0.00 0.00
0.00 0.00 0.00 0.00 0.00 0.00 0.00 0.00 0.00 0.00 0.00 0.00 0.00 0.00 0.00 0.00 0.00 0.00 0.00 0.00 0.00 0.00 0.00 0.00 0.00 0.00 0.00 0.00 0.00 0.00 0.00 0.00 0.00 0.00 0.00 0.00 0.00 0.00 0.00 0.00 0.00 0.00 0.00 0.00
0.00 0.00 0.00 0.00 0.00 0.00 0.00 0.00 0.00 0.00 0.00 0.00 0.00 0.00 0.00 0.00 0.00 0.00 0.00 0.00 0.00 0.00 0.00 0.00 0.00 0.00 0.00 0.00 0.00 0.00 0.00 0.00 0.00 0.00 0.00 0.00 0.00 0.00 0.00 0.00 0.00 0.00 0.00 0.00
0.00 0.00 0.00 0.00 0.00 0.00 0.00 0.00 0.00 0.00 0.00 0.00 0.00 0.00 0.00 0.00 0.00 0.00 0.00 0.00 0.00 0.00 0.00 0.00 0.00 0.00 0.00 0.00 0.00 0.00 0.00 0.00 0.00 0.00 0.00 0.00 0.00 0.00 0.00 0.00 0.00 0.00 0.00 0.00
0.00 0.00 0.00 0.00 0.00 0.00 0.00 0.00 0.00 0.00 0.00 0.00 0.00 0.00 0.00 0.00 0.00 0.00 0.00 0.00 0.00 0.00 0.00 0.00 0.00 0.00 0.00 0.00 0.00 0.00 0.00 0.00 0.00 0.00 0.00 0.00 0.00 0.00 0.00 0.00 0.00 0.00 0.00 0.00
0.00 0.00 0.00 0.00 0.00 0.00 0.00 0.00 0.00 0.00 0.00 0.00 0.00 0.00 0.00 0.00 0.00 0.00 0.00 0.00 0.00 0.00 0.00 0.00 0.00 0.00 0.00 0.00 0.00 0.00 0.00 0.00 0.00 0.00 0.00 0.00 0.00 0.00 0.00 0.00 0.00 0.00 0.00 0.00
0.00 0.00 0.00 0.00 0.00 0.00 0.00 0.00 0.00 0.00 0.00 0.00 0.00 0.00 0.00 0.00 0.00 0.00 0.00 0.00 0.00 0.00 0.00 0.00 0.00 0.00 0.00 0.00 0.00 0.00 0.00 0.00 0.00 0.00 0.00 0.00 0.00 0.00 0.00 0.00 0.00 0.00 0.00 0.00
0.00 0.00 0.00 0.00 0.00 0.00 0.00 0.00 0.00 0.00 0.00 0.00 0.00 0.00 0.00 0.00 0.00 0.00 0.00 0.00 0.00 0.00 0.00 0.00 0.00 0.00 0.00 0.00 0.00 0.00 0.00 0.00 0.00 0.00 0.00 0.00 0.00 0.00 0.00 0.00 0.00 0.00 0.00 0.00
0.00 0.00 0.00 0.00 0.00 0.00 0.00 0.00 0.00 0.00 0.00 0.00 0.00 0.00 0.00 0.00 0.00 0.00 0.00 0.00 0.00 0.00 0.00 0.00 0.00 0.00 0.00 0.00 0.00 0.00 0.00 0.00 0.00 0.00 0.00 0.00 0.00 0.00 0.00 0.00 0.00 0.00 0.00 0.00
0.00 0.00 0.00 0.00 0.00 0.00 0.00 0.00 0.00 0.00 0.00 0.00 0.00 0.00 0.00 0.00 0.00 0.00 0.00 0.00 0.00 0.00 0.00 0.00 0.00 0.00 0.00 0.00 0.00 0.00 0.00 0.00 0.00 0.00 0.00 0.00 0.00 0.00 0.00 0.00 0.00 0.00 0.00 0.00
MSLP
1017.74 1018.40 1018.39 1018.02 1018.05 1018.07 1018.30 1018.41 1018.24 1017.44 1016.61 1016.75 1016.53 1016.68 1016.51 1016.08 1016.50 1017.90 1019.42 1020.39 1021.44 1022.00 1022.36 1021.91 1021.46 1021.26 1020.92 1020.33 1019.90 1019.85 1019.52 1019.60 1019.12 1018.95 1019.24 1019.37 1019.80 1019.82 1019.90 1019.80 1019.67 1019.49 1019.39 1019.44
1018.39 1018.04 1017.46 1017.59 1018.08 1018.33 1018.39 1018.42 1018.14 1017.57 1016.84 1016.97 1016.90 1016.99 1017.46 1017.65 1018.19 1018.95 1020.16 1021.33 1022.14 1022.68 1022.71 1022.55 1022.30 1022.19 1021.84 1021.78 1021.59 1021.35 1021.28 1021.04 1020.85 1020.56 1020.52 1020.54 1020.55 1020.82 1020.90 1020.76 1020.63 1020.64 1020.31 1020.06
1017.71 1017.22 1016.95 1017.55 1017.82 1018.16 1018.24 1018.26 1018.09 1017.87 1017.40 1017.17 1017.39 1017.64 1018.00 1019.33 1019.92 1020.71 1021.71 1022.44 1023.04 1023.37 1023.47 1023.28 1023.01 1022.98 1023.10 1022.98 1022.89 1022.68 1022.54 1022.31 1022.25 1021.98 1021.49 1021.24 1021.22 1021.56 1021.73 1021.85 1021.78 1021.58 1021.28 1020.95
1017.47 1016.74 1016.89 1017.21 1017.47 1017.67 1017.97 1017.33 1017.59 1017.90 1018.25 1018.35 1018.12 1019.09 1018.84 1020.21 1021.26 1021.95 1022.77 1023.31 1023.78 1023.91 1024.03 1024.04 1023.90 1023.55 1023.60 1024.04 1023.95 1023.71 1023.60 1023.37 1023.29 1023.12 1023.16 1023.30 1023.60 1023.74 1024.04 1023.81 1023.37 1022.66 1022.15 1021.90
1016.91 1016.60 1016.61 1016.74 1016.68 1016.97 1017.26 1017.15 1017.67 1018.12 1018.73 1019.23 1019.31 1020.02 1019.41 1020.69 1022.03 1023.01 1023.76 1024.01 1024.27 1024.58 1024.61 1024.48 1024.28 1024.39 1024.62 1024.48 1024.62 1024.50 1024.29 1024.21 1024.27 1024.10 1024.19 1024.30 1024.53 1024.64 1024.40 1024.15 1023.89 1023.54 1023.10 1022.83
1016.89 1016.52 1016.44 1016.14 1016.34 1016.64 1017.14 1017.59 1018.37 1019.36 1019.91 1019.99 1019.34 1020.00 1019.63 1020.26 1020.97 1022.96 1023.96 1024.53 1024.70 1024.83 1025.26 1025.33 1025.24 1025.05 1024.90 1024.92 1024.77 1024.80 1024.69 1024.88 1024.81 1024.84 1024.93 1025.06 1025.34 1025.52 1025.12 1024.96 1024.80 1024.67 1024.37 1024.06
1016.93 1016.54 1016.24 1016.12 1016.54 1016.99 1017.35 1018.21 1019.27 1020.52 1021.17 1020.36 1019.95 1020.67 1019.59 1019.86 1020.30 1022.20 1023.74 1024.69 1025.07 1025.30 1025.30 1025.47 1025.82 1025.74 1025.63 1025.56 1025.46 1025.47 1025.26 1025.48 1025.45 1025.35 1025.40 1025.40 1025.77 1025.86 1025.66 1025.64 1025.51 1025.36 1024.77 1024.46
1016.94 1016.60 1016.08 1015.93 1016.06 1016.45 1017.28 1017.75 1018.77 1020.04 1021.55 1021.06 1020.48 1020.64 1020.57 1021.30 1021.58 1022.56 1023.73 1024.63 1025.03 1025.23 1025.57 1025.70 1025.90 1026.18 1026.09 1026.10 1026.29 1026.02 1026.05 1026.18 1026.03 1025.87 1025.78 1025.79 1026.03 1025.84 1025.75 1025.81 1025.80 1025.63 1025.40 1024.97
1016.56 1016.49 1015.92 1015.84 1015.91 1016.38 1017.08 1017.71 1018.04 1019.62 1021.88 1021.96 1020.82 1021.08 1021.85 1022.38 1022.93 1023.71 1024.36 1024.90 1025.32 1025.67 1025.74 1025.93 1026.19 1026.40 1026.46 1026.36 1026.25 1026.28 1026.45 1026.59 1026.59 1026.55 1026.43 1026.33 1026.16 1025.96 1025.86 1025.63 1025.45 1025.52 1025.36 1025.00
1015.76 1016.48 1016.44 1016.23 1016.36 1016.82 1016.87 1017.29 1018.47 1020.01 1021.84 1022.13 1021.27 1021.01 1020.89 1022.21 1022.89 1023.75 1024.36 1024.91 1025.28 1025.70 1025.93 1026.12 1026.25 1026.51 1026.58 1026.57 1026.55 1026.55 1026.64 1026.76 1026.79 1026.74 1026.64 1026.56 1026.43 1026.36 1026.46 1026.48 1026.48 1026.20 1025.70 1025.12
1016.05 1016.80 1017.53 1017.10 1017.08 1017.11 1017.56 1017.70 1018.66 1019.90 1021.16 1021.72 1021.85 1020.33 1019.33 1020.50 1021.83 1022.92 1023.95 1024.35 1024.84 1025.39 1025.77 1025.95 1026.15 1026.38 1026.32 1026.41 1026.46 1026.47 1026.49 1026.56 1026.56 1026.48 1026.42 1026.28 1026.28 1026.26 1026.34 1026.38 1026.35 1026.08 1025.66 1025.13
1016.42 1017.61 1018.50 1018.20 1017.90 1017.89 1017.99 1018.39 1018.92 1020.18 1021.42 1021.86 1021.85 1020.02 1019.48 1020.18 1021.46 1022.62 1023.32 1024.06 1024.69 1025.14 1025.70 1025.85 1026.00 1026.08 1026.24 1026.35 1026.32 1026.40 1026.41 1026.39 1026.23 1026.24 1026.31 1026.20 1026.18 1026.04 1026.05 1025.80 1025.50 1025.11 1024.76 1024.32
1017.09 1018.41 1019.58 1019.76 1019.36 1019.07 1019.07 1019.52 1019.91 1020.65 1021.43 1021.77 1022.24 1020.93 1020.71 1021.14 1022.11 1022.75 1023.50 1024.08 1024.85 1025.31 1025.56 1025.71 1025.95 1026.13 1026.30 1026.27 1026.19 1026.20 1026.20 1026.17 1026.01 1025.98 1025.97 1025.95 1025.86 1025.73 1025.47 1025.16 1024.76 1024.30 1024.02 1023.65
1017.43 1018.78 1019.69 1019.80 1019.42 1019.42 1020.27 1020.56 1020.82 1021.09 1022.17 1022.14 1021.24 1021.08 1021.79 1021.95 1022.53 1023.25 1023.85 1024.26 1024.78 1025.06 1025.51 1025.77 1025.92 1026.10 1026.29 1026.36 1026.44 1026.43 1026.42 1026.25 1026.37 1026.36 1026.44 1026.35 1026.12 1025.82 1025.49 1025.09 1024.64 1024.10 1023.56 1023.10
1018.91 1020.22 1020.99 1021.35 1020.86 1020.65 1020.76 1021.17 1021.40 1021.71 1021.87 1021.98 1020.62 1021.34 1020.29 1021.85 1022.52 1023.13 1023.79 1024.34 1024.79 1025.16 1025.33 1025.63 1025.94 1026.06 1026.19 1026.40 1026.60 1026.68 1026.69 1026.80 1026.82 1026.76 1026.62 1026.42 1026.10 1025.79 1025.43 1024.97 1024.43 1023.83 1023.24 1022.63
1020.45 1021.50 1022.63 1023.47 1023.02 1022.65 1022.03 1021.52 1021.67 1021.68 1021.91 1021.99 1021.76 1021.10 1021.25 1021.83 1022.71 1023.65 1024.06 1024.44 1024.81 1025.06 1025.27 1025.52 1025.68 1025.99 1026.40 1026.77 1027.00 1027.03 1027.14 1027.21 1027.07 1026.96 1026.78 1026.49 1026.16 1025.73 1025.30 1024.86 1024.50 1024.12 1023.55 1023.02
1021.97 1023.24 1024.92 1025.87 1025.36 1024.70 1023.68 1021.27 1021.32 1021.09 1021.03 1021.59 1022.26 1021.37 1021.85 1022.81 1023.15 1023.67 1024.26 1024.47 1024.72 1024.99 1025.20 1025.50 1025.77 1026.21 1026.53 1026.85 1027.08 1027.34 1027.50 1027.50 1027.39 1027.19 1026.96 1026.67 1026.25 1025.77 1025.45 1025.15 1024.62 1024.06 1023.49 1023.01
1022.71 1024.30 1025.70 1027.69 1027.90 1026.29 1021.85 1021.08 1021.08 1021.11 1021.50 1021.69 1022.29 1022.15 1022.30 1022.72 1023.09 1023.57 1023.92 1024.20 1024.57 1024.78 1025.13 1025.52 1026.09 1026.55 1026.79 1027.08 1027.42 1027.68 1027.67 1027.61 1027.48 1027.33 1027.11 1026.82 1026.55 1026.26 1025.88 1025.45 1024.87 1024.19 1023.65 1023.02
1022.95 1024.36 1027.05 1028.82 1028.80 1025.78 1022.14 1021.24 1021.25 1021.47 1021.65 1021.99 1022.41 1022.69 1022.89 1023.30 1023.67 1023.88 1023.65 1023.82 1024.11 1024.54 1024.93 1025.64 1026.25 1026.63 1027.02 1027.36 1027.69 1027.80 1027.77 1027.72 1027.62 1027.42 1027.24 1027.14 1027.09 1026.67 1026.16 1025.63 1025.05 1024.47 1023.78 1023.04
1023.94 1024.47 1026.21 1029.61 1028.92 1026.29 1023.13 1021.45 1020.86 1021.44 1022.17 1021.77 1022.30 1022.87 1023.16 1023.59 1024.09 1023.44 1023.38 1023.65 1023.96 1024.45 1025.09 1025.80 1026.34 1026.74 1027.09 1027.43 1027.63 1027.75 1027.76 1027.80 1027.76 1027.70 1027.60 1027.51 1027.26 1026.88 1026.26 1025.63 1024.97 1024.28 1023.76 1022.71
1025.71 1025.81 1026.24 1027.85 1027.63 1024.89 1022.42 1021.88 1021.60 1022.16 1021.96 1021.46 1022.17 1022.53 1022.97 1023.21 1022.70 1022.65 1022.86 1023.28 1023.70 1024.40 1025.19 1025.88 1026.34 1026.67 1027.04 1027.36 1027.64 1027.76 1027.87 1027.93 1027.93 1027.94 1027.80 1027.59 1027.31 1026.86 1026.24 1025.38 1024.75 1023.94 1023.12 1022.31
1024.37 1025.49 1025.88 1026.40 1026.21 1023.91 1021.27 1021.95 1021.74 1020.49 1020.57 1020.82 1021.43 1021.72 1022.16 1022.08 1022.11 1022.46 1022.80 1023.25 1023.97 1024.68 1025.40 1026.05 1026.59 1026.96 1027.27 1027.48 1027.81 1027.99 1028.05 1027.92 1027.97 1027.87 1027.73 1027.48 1027.16 1026.66 1025.90 1025.17 1024.25 1023.52 1022.58 1021.63
1023.18 1022.06 1022.94 1023.00 1021.89 1020.34 1020.08 1019.45 1019.12 1019.29 1019.75 1020.40 1020.80 1021.01 1021.23 1021.72 1022.03 1022.11 1022.53 1023.25 1024.07 1024.87 1025.54 1026.22 1026.77 1027.08 1027.36 1027.61 1027.90 1028.03 1027.96 1027.94 1027.83 1027.74 1027.42 1026.99 1026.52 1026.01 1025.32 1024.64 1023.75 1022.84 1021.83 1020.86
1021.46 1020.83 1021.20 1021.35 1020.20 1019.60 1019.34 1018.77 1018.76 1018.97 1019.31 1019.43 1019.80 1020.17 1020.81 1021.49 1021.53 1021.95 1022.55 1023.32 1024.12 1024.97 1025.74 1026.50 1027.04 1027.33 1027.66 1027.92 1028.13 1028.27 1028.09 1027.93 1027.81 1027.47 1026.90 1026.31 1025.73 1025.12 1024.56 1024.01 1023.15 1022.21 1021.10 1020.05
1019.23 1019.41 1019.52 1019.47 1018.99 1018.68 1018.63 1018.15 1018.04 1018.36 1018.60 1019.03 1019.36 1019.82 1020.23 1020.80 1021.23 1021.80 1022.69 1023.64 1024.43 1025.24 1026.11 1026.83 1027.28 1027.60 1027.83 1028.01 1028.13 1028.12 1028.02 1027.89 1027.70 1027.22 1026.56 1025.83 1025.19 1024.49 1023.81 1023.23 1022.25 1021.29 1020.14 1019.18
1017.15 1016.87 1017.96 1017.52 1016.91 1016.96 1016.92 1016.75 1017.06 1017.94 1018.17 1018.48 1019.01 1019.56 1019.85 1020.34 1021.06 1022.00 1022.96 1023.80 1024.77 1025.72 1026.58 1027.22 1027.69 1027.98 1028.10 1028.22 1028.16 1028.00 1027.89 1027.77 1027.63 1027.01 1026.21 1025.50 1024.80 1023.89 1023.20 1022.24 1021.10 1019.84 1018.86 1017.47
Thickness
5643 5629 5629 5637 5637 5639 5637 5631 5625 5635 5646 5642 5642 5638 5644 5653 5655 5641 5629 5622 5615 5608 5604 5608 5610 5612 5614 5618 5622 5622 5624 5624 5628 5629 5627 5625 5622 5621 5620 5620 5621 5621 5621 5619
5627 5619 5639 5639 5632 5626 5623 5616 5616 5627 5635 5635 5633 5633 5628 5626 5625 5621 5611 5601 5598 5596 5595 5595 5596 5596 5599 5599 5600 5601 5601 5603 5605 5607 5606 5606 5605 5603 5602 5602 5603 5602 5604 5605
5622 5631 5635 5628 5623 5619 5615 5612 5612 5614 5623 5625 5624 5618 5622 5609 5606 5598 5590 5585 5582 5579 5579 5582 5585 5584 5581 5580 5580 5581 5582 5583 5582 5583 5588 5589 5589 5586 5583 5580 5581 5582 5583 5585
5615 5627 5624 5616 5615 5614 5604 5616 5612 5609 5603 5596 5613 5589 5610 5595 5583 5580 5572 5566 5565 5565 5565 5564 5566 5568 5567 5561 5561 5563 5563 5563 5563 5562 5561 5559 5556 5554 5550 5552 5555 5559 5562 5563
5612 5617 5615 5612 5613 5611 5605 5612 5607 5604 5593 5591 5589 5575 5595 5582 5572 5561 5554 5553 5550 5548 5550 5552 5554 5552 5548 5549 5546 5545 5546 5545 5544 5544 5542 5539 5535 5533 5534 5536 5536 5537 5539 5541
5601 5610 5608 5608 5609 5607 5602 5598 5586 5571 5569 5567 5586 5577 5590 5582 5578 5549 5540 5535 5536 5534 5531 5529 5531 5532 5533 5532 5533 5532 5531 5528 5527 5525 5522 5519 5515 5512 5514 5513 5512 5511 5512 5513
5593 5593 5597 5601 5594 5590 5586 5576 5562 5553 5543 5561 5574 5563 5587 5574 5573 5552 5534 5524 5521 5517 5515 5513 5511 5512 5512 5511 5510 5511 5511 5508 5507 5507 5505 5502 5496 5495 5494 5492 5490 5489 5492 5492
5571 5576 5582 5589 5587 5579 5570 5573 5557 5541 5540 5557 5557 5565 5572 5542 5543 5535 5526 5515 5511 5507 5504 5501 5497 5493 5492 5491 5487 5487 5486 5484 5483 5483 5483 5482 5478 5478 5475 5472 5470 5469 5469 5469
5562 5564 5580 5579 5581 5578 5568 5559 5572 5546 5458 5508 5550 5540 5534 5527 5519 5511 5506 5501 5495 5491 5488 5484 5480 5476 5473 5471 5471 5468 5465 5461 5459 5458 5457 5455 5454 5454 5452 5451 5449 5446 5445 5444
5569 5557 5566 5569 5569 5562 5563 5563 5545 5524 5504 5478 5531 5541 5547 5514 5507 5500 5493 5488 5484 5479 5474 5469 5464 5458 5454 5452 5450 5448 5445 5442 5439 5436 5434 5432 5431 5429 5426 5422 5419 5418 5418 5419
5560 5552 5546 5554 5551 5550 5546 5543 5542 5535 5518 5496 5484 5531 5545 5520 5506 5492 5481 5478 5471 5465 5458 5454 5449 5445 5441 5436 5432 5429 5425 5421 5418 5416 5413 5411 5407 5404 5401 5398 5395 5394 5394 5393
5549 5531 5502 5535 5534 5533 5537 5534 5529 5516 5506 5486 5490 5530 5522 5512 5494 5482 5476 5469 5457 5450 5440 5436 5433 5428 5421 5416 5413 5408 5405 5401 5399 5395 5390 5387 5383 5380 5375 5373 5372 5371 5372 5372
5533 5505 5459 5487 5515 5513 5515 5507 5501 5487 5471 5451 5471 5501 5494 5484 5472 5469 5460 5448 5440 5433 5426 5420 5414 5408 5402 5398 5395 5391 5385 5380 5377 5373 5368 5363 5358 5354 5351 5349 5347 5346 5344 5345
5519 5482 5489 5517 5511 5494 5474 5483 5482 5470 5442 5446 5466 5476 5466 5465 5455 5446 5436 5427 5421 5415 5409 5400 5394 5386 5381 5376 5370 5364 5359 5355 5350 5345 5340 5335 5331 5329 5327 5325 5322 5320 5318 5317
5493 5471 5466 5465 5480 5479 5473 5462 5460 5453 5451 5445 5489 5461 5490 5456 5444 5426 5413 5406 5401 5398 5393 5381 5373 5367 5360 5352 5343 5337 5331 5324 5318 5313 5308 5304 5301 5298 5295 5294 5293 5292 5291 5292
5454 5439 5431 5415 5445 5447 5447 5451 5441 5447 5448 5431 5442 5444 5452 5423 5409 5401 5397 5392 5390 5381 5373 5366 5359 5350 5337 5326 5317 5311 5302 5293 5287 5281 5276 5272 5269 5269 5266 5264 5262 5259 5258 5257
5434 5411 5389 5384 5400 5398 5394 5424 5438 5439 5432 5433 5417 5431 5404 5404 5399 5386 5378 5377 5369 5362 5355 5345 5334 5321 5311 5300 5291 5280 5271 5264 5258 5254 5250 5246 5244 5244 5241 5238 5237 5235 5234 5231
5405 5382 5356 5332 5329 5343 5433 5424 5431 5426 5417 5405 5389 5382 5386 5388 5381 5372 5364 5357 5350 5341 5331 5321 5305 5294 5285 5275 5263 5254 5247 5242 5237 5232 5228 5225 5222 5219 5217 5214 5211 5211 5208 5206
5404 5392 5338 5337 5285 5362 5426 5417 5405 5403 5393 5378 5379 5373 5363 5363 5354 5354 5344 5338 5332 5319 5309 5294 5281 5271 5260 5250 5241 5235 5229 5223 5219 5216 5211 5204 5198 5197 5195 5191 5188 5185 5181 5180
5385 5386 5355 5257 5286 5313 5363 5375 5377 5365 5353 5353 5344 5341 5339 5339 5315 5333 5322 5317 5309 5298 5284 5272 5261 5252 5242 5232 5225 5219 5214 5207 5202 5197 5191 5184 5179 5176 5173 5169 5166 5163 5158 5161
5316 5327 5362 5294 5258 5308 5356 5360 5361 5325 5345 5340 5340 5332 5320 5316 5319 5319 5313 5302 5289 5276 5264 5252 5243 5236 5228 5219 5212 5205 5198 5191 5185 5178 5172 5166 5160 5155 5151 5151 5148 5146 5146 5147
5331 5316 5311 5298 5306 5296 5350 5332 5334 5343 5342 5342 5330 5325 5318 5314 5312 5299 5288 5281 5267 5256 5245 5236 5226 5218 5210 5203 5195 5188 5180 5176 5169 5162 5155 5149 5143 5138 5137 5136 5134 5132 5134 5137
5334 5344 5318 5320 5317 5338 5330 5330 5337 5332 5328 5322 5316 5312 5303 5297 5290 5285 5274 5259 5249 5238 5231 5220 5210 5203 5195 5187 5178 5170 5165 5158 5153 5146 5140 5136 5133 5130 5128 5126 5124 5123 5125 5128
5332 5335 5320 5310 5329 5325 5319 5319 5319 5311 5311 5310 5304 5299 5285 5276 5273 5266 5255 5246 5235 5224 5213 5203 5194 5186 5178 5169 5160 5151 5147 5141 5134 5130 5128 5127 5127 5126 5124 5120 5116 5115 5116 5118
5342 5331 5306 5296 5318 5312 5303 5306 5308 5297 5293 5291 5285 5280 5274 5265 5258 5252 5240 5229 5220 5210 5198 5187 5179 5171 5163 5154 5144 5135 5129 5123 5118 5116 5116 5116 5118 5119 5119 5115 5113 5113 5113 5112
5353 5341 5306 5298 5320 5309 5313 5312 5298 5283 5281 5277 5270 5264 5261 5256 5248 5236 5226 5217 5205 5192 5181 5172 5163 5154 5147 5138 5129 5121 5113 5107 5102 5103 5104 5107 5110 5113 5112 5113 5114 5110 5110 5112